EN

Hourly Weather Trud

Today, 12 April, Monday

Time Temperature Precipitation Wind Pressure Humidity
00:00 +6°C° 0 mm 2 mps 753 mmHg 91%
01:00 +6°C° 0 mm 2 mps 753 mmHg 91%
02:00 +6°C° 0 mm 2 mps 753 mmHg 91%
03:00 +5°C° 0 mm 2 mps 753 mmHg 90%
04:00 +5°C° 0 mm 2 mps 753 mmHg 89%
05:00 +5°C° 0 mm 2 mps 753 mmHg 87%
06:00 +7°C° 0 mm 2 mps 754 mmHg 80%
07:00 +9°C° 0 mm 3 mps 754 mmHg 72%
08:00 +10°C° 0 mm 3 mps 754 mmHg 64%
09:00 +12°C° 0 mm 3 mps 753 mmHg 58%
10:00 +13°C° 0 mm 4 mps 753 mmHg 53%
11:00 +15°C° 0 mm 4 mps 753 mmHg 47%
12:00 +15°C° 0 mm 4 mps 753 mmHg 45%
13:00 +16°C° 0 mm 5 mps 752 mmHg 43%
14:00 +16°C° 0 mm 5 mps 752 mmHg 41%
15:00 +15°C° 0 mm 5 mps 751 mmHg 43%
16:00 +14°C° 0 mm 4 mps 751 mmHg 46%
17:00 +13°C° 0 mm 4 mps 750 mmHg 48%
18:00 +12°C° 0 mm 4 mps 750 mmHg 52%
19:00 +11°C° 0 mm 4 mps 750 mmHg 56%
20:00 +10°C° 0 mm 4 mps 750 mmHg 60%
21:00 +10°C° 0 mm 4 mps 750 mmHg 66%
22:00 +10°C° 0 mm 3 mps 750 mmHg 71%
23:00 +9°C° 0 mm 3 mps 749 mmHg 76%

Tomorrow, 13 April, Tuesday

Time Temperature Precipitation Wind Pressure Humidity
00:00 +9°C° 0 mm 3 mps 749 mmHg 81%
01:00 +8°C° 0 mm 2 mps 749 mmHg 85%
02:00 +8°C° 0 mm 2 mps 748 mmHg 90%
03:00 +8°C° 0 mm 2 mps 748 mmHg 92%
04:00 +8°C° 0 mm 2 mps 748 mmHg 94%
05:00 +8°C° 0 mm 1 mps 748 mmHg 96%
06:00 +8°C° 0.1 mm 2 mps 747 mmHg 92%
07:00 +9°C° 0.1 mm 2 mps 747 mmHg 89%
08:00 +10°C° 0.1 mm 2 mps 747 mmHg 85%
09:00 +12°C° 0 mm 2 mps 747 mmHg 79%
10:00 +14°C° 0 mm 2 mps 747 mmHg 73%
11:00 +15°C° 0 mm 2 mps 747 mmHg 67%
12:00 +15°C° 0 mm 2 mps 747 mmHg 68%
13:00 +15°C° 0 mm 2 mps 747 mmHg 70%
14:00 +15°C° 0 mm 2 mps 747 mmHg 71%
15:00 +15°C° 0.1 mm 1 mps 746 mmHg 72%
16:00 +15°C° 0.1 mm 1 mps 746 mmHg 73%
17:00 +15°C° 0.1 mm 1 mps 746 mmHg 74%
18:00 +14°C° 0.2 mm 1 mps 746 mmHg 79%
19:00 +13°C° 0.2 mm 1 mps 746 mmHg 84%
20:00 +12°C° 0.2 mm 1 mps 746 mmHg 89%
21:00 +12°C° 0.1 mm 2 mps 746 mmHg 87%
22:00 +12°C° 0.1 mm 2 mps 745 mmHg 84%
23:00 +12°C° 0.1 mm 2 mps 745 mmHg 82%

Day after tomorrow, 14 April, Wednesday

Time Temperature Precipitation Wind Pressure Humidity
00:00 +12°C° 0 mm 2 mps 745 mmHg 85%
01:00 +10°C° 0 mm 2 mps 745 mmHg 87%
02:00 +10°C° 0 mm 2 mps 744 mmHg 89%
03:00 +9°C° 0 mm 2 mps 744 mmHg 90%
04:00 +9°C° 0 mm 2 mps 744 mmHg 90%
05:00 +9°C° 0 mm 2 mps 744 mmHg 90%
06:00 +10°C° 0 mm 2 mps 744 mmHg 85%
07:00 +11°C° 0 mm 3 mps 744 mmHg 79%
08:00 +12°C° 0 mm 3 mps 743 mmHg 74%
09:00 +13°C° 0.1 mm 3 mps 743 mmHg 73%
10:00 +13°C° 0.1 mm 3 mps 743 mmHg 73%
11:00 +13°C° 0.1 mm 3 mps 743 mmHg 73%
12:00 +14°C° 0.1 mm 3 mps 743 mmHg 70%
13:00 +14°C° 0.1 mm 3 mps 743 mmHg 68%
14:00 +14°C° 0.1 mm 3 mps 743 mmHg 65%
15:00 +14°C° 0.2 mm 3 mps 743 mmHg 68%
16:00 +15°C° 0.2 mm 2 mps 743 mmHg 70%
17:00 +14°C° 0.2 mm 2 mps 743 mmHg 73%
18:00 +13°C° 0.1 mm 2 mps 744 mmHg 79%
19:00 +10°C° 0.1 mm 2 mps 744 mmHg 86%
20:00 +9°C° 0.1 mm 2 mps 745 mmHg 92%
21:00 +8°C° 0 mm 2 mps 745 mmHg 93%
22:00 +7°C° 0 mm 2 mps 745 mmHg 94%
23:00 +6°C° 0 mm 2 mps 745 mmHg 95%

15 April, Thursday

Time Temperature Precipitation Wind Pressure Humidity
00:00 +6°C° 0.1 mm 2 mps 745 mmHg 95%
01:00 +6°C° 0.1 mm 2 mps 745 mmHg 94%
02:00 +5°C° 0.1 mm 2 mps 745 mmHg 94%
03:00 +5°C° 0.4 mm 2 mps 745 mmHg 94%
04:00 +5°C° 0.4 mm 2 mps 745 mmHg 95%
05:00 +5°C° 0.4 mm 2 mps 745 mmHg 95%
06:00 +4°C° 0.4 mm 3 mps 745 mmHg 95%
07:00 +4°C° 0.4 mm 3 mps 746 mmHg 95%
08:00 +4°C° 0.4 mm 3 mps 746 mmHg 96%
09:00 +5°C° 0.2 mm 3 mps 746 mmHg 95%
10:00 +5°C° 0.2 mm 3 mps 746 mmHg 94%
11:00 +5°C° 0.2 mm 3 mps 746 mmHg 93%
12:00 +5°C° 0.1 mm 3 mps 746 mmHg 92%
13:00 +7°C° 0.1 mm 3 mps 746 mmHg 91%
14:00 +6°C° 0.1 mm 4 mps 746 mmHg 91%
15:00 +7°C° 0 mm 3 mps 746 mmHg 91%
16:00 +5°C° 0 mm 3 mps 746 mmHg 91%
17:00 +5°C° 0 mm 3 mps 747 mmHg 92%
18:00 +5°C° 0 mm 3 mps 747 mmHg 92%
19:00 +5°C° 0 mm 3 mps 747 mmHg 93%
20:00 +4°C° 0 mm 3 mps 747 mmHg 94%
21:00 +4°C° 0 mm 3 mps 747 mmHg 94%
22:00 +4°C° 0 mm 3 mps 747 mmHg 94%
23:00 +4°C° 0 mm 3 mps 747 mmHg 95%

16 April, Friday

Time Temperature Precipitation Wind Pressure Humidity
00:00 +4°C° 0 mm 3 mps 747 mmHg 94%
01:00 +4°C° 0 mm 3 mps 748 mmHg 94%
02:00 +4°C° 0 mm 3 mps 748 mmHg 93%
03:00 +3°C° 0 mm 4 mps 748 mmHg 92%
04:00 +3°C° 0 mm 4 mps 748 mmHg 92%
05:00 +3°C° 0 mm 4 mps 748 mmHg 91%
06:00 +4°C° 0 mm 4 mps 748 mmHg 88%
07:00 +4°C° 0 mm 4 mps 749 mmHg 85%
08:00 +4°C° 0 mm 4 mps 749 mmHg 83%
09:00 +6°C° 0 mm 5 mps 749 mmHg 77%
10:00 +7°C° 0 mm 5 mps 749 mmHg 72%
11:00 +8°C° 0 mm 5 mps 749 mmHg 66%
12:00 +9°C° 0 mm 5 mps 750 mmHg 62%
13:00 +9°C° 0 mm 5 mps 750 mmHg 57%
14:00 +10°C° 0 mm 5 mps 750 mmHg 52%
15:00 +10°C° 0 mm 5 mps 750 mmHg 52%
16:00 +9°C° 0 mm 5 mps 750 mmHg 51%
17:00 +9°C° 0 mm 5 mps 750 mmHg 50%
18:00 +7°C° 0 mm 5 mps 751 mmHg 53%
19:00 +6°C° 0 mm 5 mps 751 mmHg 55%
20:00 +5°C° 0 mm 4 mps 752 mmHg 58%
21:00 +4°C° 0 mm 4 mps 752 mmHg 60%
22:00 +4°C° 0 mm 4 mps 752 mmHg 63%
23:00 +3°C° 0 mm 4 mps 753 mmHg 65%

17 April, Saturday

Time Temperature Precipitation Wind Pressure Humidity
00:00 +3°C° 0 mm 4 mps 753 mmHg 67%
01:00 +1°C° 0 mm 4 mps 753 mmHg 69%
02:00 +1°C° 0 mm 4 mps 753 mmHg 71%
03:00 0°C° 0 mm 4 mps 754 mmHg 72%
04:00 +1°C° 0 mm 3 mps 754 mmHg 74%
05:00 +1°C° 0 mm 3 mps 754 mmHg 75%
06:00 +1°C° 0 mm 4 mps 755 mmHg 69%
07:00 +4°C° 0 mm 4 mps 755 mmHg 62%
08:00 +5°C° 0 mm 4 mps 755 mmHg 55%
09:00 +6°C° 0 mm 5 mps 755 mmHg 50%
10:00 +8°C° 0 mm 5 mps 755 mmHg 45%
11:00 +9°C° 0 mm 5 mps 756 mmHg 40%
12:00 +9°C° 0 mm 5 mps 756 mmHg 38%
13:00 +11°C° 0 mm 4 mps 756 mmHg 37%
14:00 +11°C° 0 mm 4 mps 755 mmHg 35%
15:00 +11°C° 0 mm 4 mps 756 mmHg 38%
16:00 +11°C° 0 mm 4 mps 756 mmHg 40%
17:00 +10°C° 0 mm 3 mps 756 mmHg 43%
18:00 +9°C° 0 mm 3 mps 756 mmHg 51%
19:00 +7°C° 0 mm 3 mps 756 mmHg 58%
20:00 +5°C° 0 mm 2 mps 756 mmHg 65%
21:00 +4°C° 0 mm 2 mps 756 mmHg 68%
22:00 +4°C° 0 mm 2 mps 757 mmHg 71%
23:00 +3°C° 0 mm 2 mps 757 mmHg 73%
Show more

We Need Your Consent

Meteoprog and our Service Providers may store and access personal data such as cookies, device identifiers or other similar technologies on your device and process such data to personalise content and ads, as well as provide social media features and to analyse the traffic.

  • Store and/or access information on your device

    Cookies, device identifiers or other information can be stored or accessed on your device for the purposes indicated above.

  • Personalised ads and content, ad and content measurement, audience insights, and products development

    Ads and content can be personalised based on a profile. More data can be added to better personalise ads and content. Ad and content performance can be measured. Insights about the audience who saw the ads and content can be derived. Such data can be used to develop or improve user’s experience, systems and software.

By clicking ‘I Agree’ you will allow the use of indicated cookies, device identifiers, web beacons or other similar technologies. Your settings can be changed in the browser on your device.

For certain purposes, legitimate interests may be relied on, rather than consent. You can read more about this in our Privacy and Cookie Policy.